Simultaneous Nadir Overpasses (SNOs) Predictions

Prediction of SNOs between FY3D and METOP-A Satellite Orbit:

Table of predicted SNOs for the next 14.0 days since TLE Epoch: 7/25/2020
Index Date (FY3D) Time (FY3D) Lat,Lon (FY3D) SZA (FY3D ) Date (METOP-A) Time (METOP-A) Lat,Lon (METOP-A) SZA (METOP-A ) Distance(km) Time Diff (sec)
1 08/05/2020 01:06:28 -76.45, -33.32 119.76 08/05/2020 01:07:33 -76.40, -29.77 120.09 92.99 65
2 08/05/2020 01:57:08 76.24, 134.76 59.99 08/05/2020 01:58:17 76.21, 136.90 59.78 56.71 69
3 08/05/2020 02:47:50 -76.14, -57.55 120.13 08/05/2020 02:49:01 -76.10, -56.12 120.29 38.19 71
4 08/05/2020 03:38:31 75.97, 110.35 59.67 08/05/2020 03:39:45 75.91, 110.57 59.58 8.80 74
5 08/05/2020 04:29:14 -75.91, -82.13 120.39 08/05/2020 04:30:27 -75.90, -82.14 120.42 1.06 73
6 08/05/2020 05:19:59 75.92, 85.15 59.63 08/05/2020 05:21:07 75.88, 85.16 59.58 3.61 68
7 08/05/2020 06:10:43 -75.90,-107.49 120.38 08/05/2020 06:11:48 -75.92,-107.40 120.39 3.33 65
8 08/05/2020 07:01:28 75.91, 59.79 59.65 08/05/2020 07:02:28 75.91, 59.90 59.62 3.15 60
9 08/05/2020 07:52:12 -75.90,-132.85 120.36 08/05/2020 07:53:10 -75.90,-132.80 120.38 1.30 58
10 08/05/2020 08:42:57 75.91, 34.42 59.67 08/05/2020 08:43:50 75.89, 34.49 59.62 3.10 53
11 08/05/2020 09:33:41 -75.90,-158.21 120.35 08/05/2020 09:34:32 -75.88,-158.21 120.38 1.87 51
12 08/05/2020 10:24:25 75.86, 9.22 59.63 08/05/2020 10:25:12 75.87, 9.09 59.63 3.59 47
13 08/05/2020 11:15:10 -75.90, 176.42 120.33 08/05/2020 11:15:53 -75.91, 176.53 120.34 3.20 43
14 08/05/2020 12:05:55 75.91, -16.30 59.70 08/05/2020 12:06:33 75.90, -16.17 59.67 3.73 38
15 08/05/2020 12:56:39 -75.89, 151.06 120.31 08/05/2020 12:57:15 -75.89, 151.12 120.34 1.83 36
16 08/05/2020 13:47:23 75.86, -41.51 59.66 08/05/2020 13:47:55 75.87, -41.58 59.67 2.63 32
17 08/05/2020 14:38:08 -75.89, 125.70 120.30 08/05/2020 14:38:37 -75.87, 125.72 120.33 2.77 29
18 08/05/2020 15:28:52 75.86, -66.87 59.68 08/05/2020 15:29:17 75.85, -66.99 59.67 3.17 25
19 08/05/2020 16:19:37 -75.89, 100.34 120.28 08/05/2020 16:19:58 -75.89, 100.46 120.29 3.34 21
20 08/05/2020 17:10:21 75.85, -92.23 59.69 08/05/2020 17:10:38 75.88, -92.25 59.71 2.96 17
21 08/05/2020 18:01:06 -75.89, 74.98 120.27 08/05/2020 18:01:20 -75.87, 75.05 120.29 2.61 14
22 08/05/2020 18:51:50 75.85,-117.60 59.71 08/05/2020 18:52:00 75.86,-117.65 59.72 1.80 10
23 08/05/2020 19:42:34 -75.84, 49.77 120.30 08/05/2020 19:42:42 -75.85, 49.65 120.28 3.62 8
24 08/05/2020 20:33:19 75.85,-142.96 59.72 08/05/2020 20:33:22 75.84,-143.06 59.72 3.02 3
25 08/05/2020 21:24:04 -75.88, 24.25 120.23 08/05/2020 21:24:03 -75.88, 24.39 120.25 3.74 1
26 08/05/2020 22:14:48 75.85,-168.32 59.74 08/05/2020 22:14:43 75.86,-168.32 59.76 2.04 5
27 08/05/2020 23:05:32 -75.83, -0.96 120.27 08/05/2020 23:05:25 -75.86, -1.02 120.24 3.16 7
28 08/05/2020 23:56:17 75.84, 166.32 59.76 08/05/2020 23:56:05 75.84, 166.27 59.76 1.18 12
29 08/06/2020 00:47:01 -75.83, -26.32 120.26 08/06/2020 00:46:47 -75.84, -26.43 120.24 2.95 14
30 08/06/2020 01:37:46 75.84, 140.95 59.77 08/06/2020 01:37:27 75.82, 140.87 59.77 3.16 19
31 08/06/2020 02:28:30 -75.83, -51.68 120.24 08/06/2020 02:28:08 -75.86, -51.68 120.20 3.86 22
32 08/06/2020 03:19:15 75.84, 115.59 59.79 08/06/2020 03:18:48 75.85, 115.61 59.81 1.22 27
33 08/06/2020 04:09:59 -75.82, -77.05 120.22 08/06/2020 04:09:30 -75.84, -77.09 120.19 2.22 29
34 08/06/2020 05:00:44 75.84, 90.23 59.80 08/06/2020 05:00:10 75.83, 90.20 59.81 1.21 34
35 08/06/2020 05:51:28 -75.82,-102.41 120.21 08/06/2020 05:50:52 -75.82,-102.50 120.19 2.46 36
36 08/06/2020 06:42:13 75.83, 64.87 59.82 08/06/2020 06:41:31 75.85, 64.94 59.85 3.07 42
37 08/06/2020 07:32:57 -75.82,-127.77 120.19 08/06/2020 07:32:13 -75.85,-127.76 120.15 3.02 44
38 08/06/2020 08:23:42 75.83, 39.50 59.84 08/06/2020 08:22:53 75.83, 39.53 59.85 0.84 49
39 08/06/2020 09:14:26 -75.82,-153.13 120.17 08/06/2020 09:13:35 -75.83,-153.16 120.15 1.27 51
40 08/06/2020 10:05:11 75.83, 14.14 59.85 08/06/2020 10:04:15 75.81, 14.13 59.86 1.85 56
41 08/06/2020 10:55:55 -75.81,-178.50 120.16 08/06/2020 10:54:57 -75.80,-178.57 120.14 2.29 58
42 08/06/2020 11:46:40 75.83, -11.22 59.87 08/06/2020 11:45:36 75.84, -11.13 59.90 2.79 64
43 08/06/2020 12:37:24 -75.81, 156.14 120.14 08/06/2020 12:36:18 -75.83, 156.17 120.10 2.28 66
44 08/06/2020 13:28:09 75.82, -36.58 59.89 08/06/2020 13:26:58 75.82, -36.54 59.90 1.35 71
45 08/06/2020 14:18:53 -75.81, 130.78 120.13 08/06/2020 14:17:40 -75.81, 130.76 120.10 0.42 73
46 08/06/2020 15:09:35 75.68, -61.49 59.74 08/06/2020 15:08:22 75.70, -62.24 59.84 20.76 73
47 08/06/2020 16:00:17 -75.62, 106.02 120.33 08/06/2020 15:59:05 -75.60, 104.77 120.23 34.44 72
48 08/06/2020 16:50:57 75.40, -85.97 59.42 08/06/2020 16:49:49 75.39, -88.51 59.64 71.21 68
49 08/06/2020 17:41:39 -75.29, 81.67 120.70 08/06/2020 17:40:33 -75.29, 78.52 120.43 88.86 66
